Weather History for Shannon, Ireland

Change the Weather History Date:

Tuesday, June 12, 2012

  Actual Average Record
Temperature  
Mean Temperature 56 °F -  
Max Temperature 60 °F 65 °F 73 °F (2014)
Min Temperature 51 °F 52 °F 44 °F (2005)
Degree Days  
Heating Degree Days 10    
Growing Degree Days 6 (Base 50)    
Moisture  
Dew Point 50 °F    
Average Humidity 86    
Maximum Humidity 100    
Minimum Humidity 67    
Precipitation  
Precipitation 0.04 in 0.08 in - ()
Sea Level Pressure  
Sea Level Pressure 29.88 in    
Wind  
Wind Speed 7 mph ()    
Max Wind Speed 16 mph    
Max Gust Speed -    
Visibility 6.4 miles    
Events Rain    
Averages and records for this station are not official NWS values.
T = Trace of Precipitation, MM = Missing Value Source: Averaged Metar Reports

Daily Weather History Graph

Daily Weather History Graph

Search for Another Location

Airport:

Trip Planner

Search our weather history database for the weather conditions in past years. The results will help you decide how hot, cold, wet, or windy it might be!

Date:

Astronomy

Jun. 12, 2012 Rise Set
Actual Time 5:11 AM IST 10:00 PM IST
Civil Twilight 4:21 AM IST 10:50 PM IST
Nautical Twilight 2:58 AM IST 12:13 AM IST
Astronomical Twilight Sun does not rise Sun does not rise
Moon 1:39 AM IST (6/12) 2:53 PM IST (6/12)
Length of Visible Light 18h 28m
Length of Day
16h 48m
Last Quarter, 40% of the Moon is Illuminated
Jun 12
Last Quarter
Jun 19
New
Jun 27
First Quarter
Jul 3
Full
Jul 11
Last Quarter

Hourly Weather History & Observations

Time (IST) Temp. Dew Point Humidity Pressure Visibility Wind Dir Wind Speed Gust Speed Precip Events Conditions
12:00 AM 53.6 °F 51.8 °F 94% 29.80 in 6.2 mi West 5.8 mph - N/A   Mostly Cloudy
12:30 AM 53.6 °F 51.8 °F 94% 29.80 in 6.2 mi WNW 4.6 mph - N/A   Mostly Cloudy
1:00 AM 52 °F 51 °F 95% 29.81 in 12 mi NW 6.7 mph - -   Overcast
1:00 AM 51.8 °F 51.8 °F 100% 29.80 in 6.2 mi NW 5.8 mph - N/A   Mostly Cloudy
1:30 AM 51.8 °F 50.0 °F 94% 29.80 in 6.2 mi NW 4.6 mph - N/A   Mostly Cloudy
2:00 AM 51.8 °F 50.0 °F 94% 29.80 in 6.2 mi NNW 5.8 mph - N/A   Mostly Cloudy
2:30 AM 51.8 °F 50.0 °F 94% 29.80 in 6.2 mi NW 6.9 mph - N/A   Mostly Cloudy
3:00 AM 51.8 °F 51.8 °F 100% 29.80 in 6.2 mi NW 6.9 mph - N/A   Mostly Cloudy
3:30 AM 53.6 °F 51.8 °F 94% 29.80 in 6.2 mi NNW 8.1 mph - N/A   Mostly Cloudy
4:00 AM 51.8 °F 50.0 °F 94% 29.80 in 6.2 mi WNW 3.5 mph - N/A   Mostly Cloudy
4:30 AM 51.8 °F 51.8 °F 100% 29.80 in 6.2 mi NW 6.9 mph - N/A   Mostly Cloudy
5:00 AM 51.8 °F 51.8 °F 100% 29.80 in 6.2 mi NW 6.9 mph - N/A   Mostly Cloudy
5:30 AM 51.8 °F 51.8 °F 100% 29.80 in 6.2 mi NW 4.6 mph - N/A   Mostly Cloudy
6:00 AM 51.8 °F 50.0 °F 94% 29.83 in 6.2 mi NW 5.8 mph - N/A   Mostly Cloudy
6:30 AM 53.6 °F 51.8 °F 94% 29.83 in 6.2 mi NW 6.9 mph - N/A   Mostly Cloudy
7:00 AM 53 °F 51 °F 92% 29.84 in 12 mi NNW 8.9 mph - -   Mostly Cloudy
7:00 AM 53.6 °F 51.8 °F 94% 29.83 in 6.2 mi NNW 8.1 mph - N/A   Mostly Cloudy
7:30 AM 51.8 °F 50.0 °F 94% 29.83 in 6.2 mi NW 8.1 mph - N/A   Mostly Cloudy
8:00 AM 53.6 °F 50.0 °F 88% 29.86 in 6.2 mi NW 6.9 mph - N/A   Mostly Cloudy
8:30 AM 53.6 °F 51.8 °F 94% 29.86 in 6.2 mi NW 6.9 mph - N/A   Mostly Cloudy
9:00 AM 55.4 °F 51.8 °F 88% 29.86 in 6.2 mi NNW 9.2 mph - N/A   Mostly Cloudy
9:30 AM 55.4 °F 51.8 °F 88% 29.86 in 6.2 mi NNW 10.4 mph - N/A   Mostly Cloudy
10:00 AM 55.4 °F 50.0 °F 82% 29.86 in 6.2 mi NNW 10.4 mph - N/A   Mostly Cloudy
10:30 AM 57.2 °F 50.0 °F 77% 29.86 in 6.2 mi North 11.5 mph - N/A   Scattered Clouds
11:00 AM 57.2 °F 48.2 °F 72% 29.86 in 6.2 mi NNW 9.2 mph - N/A   Mostly Cloudy
11:30 AM 55.4 °F 51.8 °F 88% 29.89 in 6.2 mi NW 8.1 mph - N/A   Mostly Cloudy
12:00 PM 59.0 °F 51.8 °F 77% 29.89 in 6.2 mi NW 8.1 mph - N/A   Mostly Cloudy
12:30 PM 55.4 °F 51.8 °F 88% 29.89 in 4.3 mi NW 11.5 mph - N/A Rain Light Rain Showers
1:00 PM 55 °F 51 °F 82% 29.91 in 4 mi WNW 11.2 mph - - Rain Light Rain Showers
1:00 PM 55.4 °F 51.8 °F 88% 29.89 in 3.7 mi WNW 11.5 mph - N/A Rain Light Rain Showers
1:30 PM 55.4 °F 51.8 °F 88% 29.89 in 6.2 mi WNW 11.5 mph - N/A Rain Light Rain Showers
2:00 PM 55.4 °F 50.0 °F 82% 29.89 in 6.2 mi NW 11.5 mph - N/A   Mostly Cloudy
2:30 PM 57.2 °F 50.0 °F 77% 29.89 in 6.2 mi WNW 12.7 mph - N/A Rain Light Rain Showers
3:00 PM 59.0 °F 50.0 °F 72% 29.89 in 6.2 mi WNW 16.1 mph - N/A   Mostly Cloudy
3:30 PM 60.8 °F 51.8 °F 72% 29.92 in 4.3 mi NW 13.8 mph - N/A   Mostly Cloudy
4:00 PM 57.2 °F 50.0 °F 77% 29.92 in 5.6 mi North 11.5 mph - N/A Rain Light Rain Showers
4:30 PM 57.2 °F 50.0 °F 77% 29.92 in 6.2 mi North 9.2 mph - N/A   Mostly Cloudy
5:00 PM 55.4 °F 48.2 °F 77% 29.92 in 6.2 mi NNW 12.7 mph - N/A   Mostly Cloudy
5:30 PM 57.2 °F 50.0 °F 77% 29.92 in 6.2 mi NNW 8.1 mph - N/A Rain Light Rain Showers
6:00 PM 57.2 °F 48.2 °F 72% 29.92 in 6.2 mi NW 12.7 mph - N/A Rain Light Rain Showers
6:30 PM 55.4 °F 48.2 °F 77% 29.92 in 6.2 mi NNW 11.5 mph - N/A   Mostly Cloudy
7:00 PM 56 °F 48 °F 67% 29.95 in 12 mi WNW 11.2 mph - - Rain Light Rain Showers
7:00 PM 55.4 °F 48.2 °F 77% 29.95 in 6.2 mi WNW 11.5 mph - N/A Rain Light Rain Showers
7:30 PM 55.4 °F 48.2 °F 77% 29.95 in 6.2 mi WNW 10.4 mph - N/A   Mostly Cloudy
8:00 PM 55.4 °F 48.2 °F 77% 29.95 in 6.2 mi WNW 11.5 mph - N/A   Mostly Cloudy
8:30 PM 55.4 °F 48.2 °F 77% 29.95 in 6.2 mi WNW 12.7 mph - N/A   Mostly Cloudy
9:00 PM 53.6 °F 48.2 °F 82% 29.95 in 6.2 mi WNW 10.4 mph - N/A   Mostly Cloudy
9:30 PM 53.6 °F 48.2 °F 82% 29.95 in 6.2 mi WNW 10.4 mph - N/A   Mostly Cloudy
10:00 PM 53.6 °F 48.2 °F 82% 29.98 in 6.2 mi WNW 10.4 mph - N/A   Mostly Cloudy
10:30 PM 53.6 °F 48.2 °F 82% 29.98 in 6.2 mi WNW 6.9 mph - N/A Rain Light Rain Showers
11:00 PM 53.6 °F 48.2 °F 82% 29.98 in 6.2 mi WNW 5.8 mph - N/A   Mostly Cloudy
11:30 PM 53.6 °F 48.2 °F 82% 29.98 in 6.2 mi West 6.9 mph - N/A   Mostly Cloudy